#timestamp,LO_Frequency,Hit,StdDev 
1638054015.5,286047002.3,N
1638054035.3,286047001.5,N
1638054055.1,286047001.9,N
1638054075.9,286047001.6,N
1638054095.7,286047002.4,N
1638054115.5,286047002.4,N
1638054135.4,286047001.8,N
1638054155.2,286047000.5,N
1638054175.1,286047001.1,N
1638054176.0,286047001.1,N
1638054195.8,286047000.4,N
1638054215.6,286047000.6,N
1638054235.5,286047000.6,N
1638054255.3,286047000.5,N
1638054275.2,286047002.8,N
1638054295.0,286047002.8,N
1638054295.9,286047002.8,N
1638054315.7,286047002.3,N
1638054335.6,286047002.5,N
1638054355.4,286047002.4,N
1638054375.3,286047002.8,N
1638054395.1,286046999.8,N
1638054396.0,286046999.8,N
1638054415.8,286046999.7,N
1638054435.7,286047000.0,N
1638054455.5,286047000.2,N
1638054475.3,286047000.7,N
1638054495.2,286047000.0,N
1638054515.0,286047001.0,N
1638054515.9,286047001.0,N
1638054535.8,286047000.5,N
1638054585.6,286046998.1,E
1638054595.6,286047000.1,N
1638054615.4,286047001.4,P
1638054635.2,286047002.0,P
1638054655.1,286047002.2,N
1638054656.0,286047002.2,N
1638054675.8,286047004.3,Y
1638054695.7,286047002.3,P
1638054715.5,286047002.3,P
1638054735.3,286047002.2,P
1638054755.2,286047002.4,Y
1638054775.0,286046998.7,P
1638054775.9,286046998.7,N
1638054795.7,286046999.2,N
1638054815.6,286046999.2,N
1638054835.4,286046999.4,N
1638054855.3,286046999.0,N
1638054875.1,286046998.7,N
1638054876.0,286046998.7,N
1638054895.8,286046999.6,N
1638054915.7,286046999.6,N
1638054935.5,286046997.0,Y
1638054955.3,286046998.6,P
1638054975.2,286046998.8,P
1638054995.0,286046996.7,P
1638054995.9,286046996.7,Y
1638055015.8,286046999.6,P
1638055035.6,286046997.0,P
1638055055.4,286046996.6,P
1638055075.3,286046996.9,N
1638055095.1,286046998.7,N
1638055115.9,286046996.5,Y
1638055135.7,286047000.6,P
1638055155.6,286047000.8,N
1638055175.4,286046998.1,N
1638055195.3,286047001.2,N
1638055215.1,286047001.2,N
1638055235.8,286046998.1,N
1638055255.7,286046998.3,N
1638055275.5,286046997.1,N
1638055295.4,286046996.5,N
1638055315.2,286046999.1,N
1638055335.0,286046998.3,N
1638055335.9,286046998.3,N
1638055355.8,286046996.9,N
1638055375.6,286046996.9,N
1638055395.5,286046998.4,N
1638055415.3,286046998.1,N
1638055435.1,286046998.5,N
1638055455.9,286047001.0,N
1638055475.7,286046999.5,N
1638055495.5,286046999.3,N
1638055515.4,286046999.2,N
1638055535.2,286046996.8,N
1638055555.1,286046999.6,N
1638055556.0,286046999.6,N
1638055575.8,286046995.0,Y
1638055595.6,286046996.5,P
1638055615.5,286046996.5,P
1638055635.3,286046997.3,N
1638055655.1,286046999.2,N
1638055675.9,286046999.0,N
1638055695.7,286046998.4,N
1638055715.6,286046999.5,N
1638055735.4,286046997.0,N
1638055755.2,286046996.8,N
1638055775.1,286046997.1,N
1638055776.0,286046997.1,N
1638055795.8,286046996.8,Y
1638055815.7,286047000.4,P
1638055835.5,286047000.6,N
1638055855.3,286047000.2,N
1638055875.2,286046998.2,N
1638055895.9,286046998.3,N
1638055915.7,286047000.5,N
1638055935.6,286046998.1,N
1638055955.4,286047000.6,N
1638055975.2,286046998.7,N
1638055995.1,286046999.9,N
1638055996.0,286046999.9,N
1638056015.8,286046999.9,N
1638056035.7,286047000.2,N
1638056055.5,286046999.8,N
1638056075.3,286046999.8,N
1638056095.2,286047000.4,N
1638056115.0,286046999.8,N
1638056115.9,286046999.8,N
1638056135.8,286046998.5,N
1638056155.6,286047000.2,N
1638056175.4,286047000.3,N
1638056195.3,286047000.5,N
1638056215.1,286047001.1,N
1638056235.8,286046999.1,N
1638056255.7,286046999.6,N
1638056275.5,286046998.5,N
1638056295.4,286046998.4,N
1638056315.2,286046998.4,N
1638056335.0,286047000.6,N
1638056335.9,286047000.6,N
1638056355.8,286047001.0,N
1638056375.6,286046998.1,N
1638056395.4,286046998.5,N
1638056415.3,286047000.0,N
1638056435.1,286047000.4,N
1638056455.9,286047000.9,N
1638056475.7,286046998.1,N
1638056495.5,286046998.8,N
1638056515.4,286046998.5,N
1638056535.2,286046998.2,N
1638056555.0,286046998.2,N
1638056555.9,286046998.2,N
1638056575.8,286046999.0,N
1638056595.6,286046999.3,N
1638056615.5,286046996.6,Y
1638056635.3,286046999.4,P
1638056655.1,286046996.6,P
1638056675.9,286046998.4,N
1638056695.7,286046999.1,N
1638056715.6,286046999.3,N
1638056735.4,286046998.7,N
1638056755.2,286046998.7,N
1638056775.1,286046999.2,N
1638056776.0,286046999.2,N
1638056795.8,286046999.0,N
1638056815.6,286046998.7,N
1638056835.5,286046998.6,N
1638056855.3,286046998.2,N
1638056875.2,286046999.3,N
1638056895.9,286046999.5,N
1638056915.8,286046996.6,Y
1638056935.6,286047000.0,P
1638056955.4,286047001.1,N
1638056975.3,286046998.2,N
1638056995.1,286047000.7,N
1638057015.9,286046998.4,N
1638057035.7,286046998.5,N
1638057055.5,286046998.8,N
1638057075.4,286047001.2,N
1638057095.2,286046999.7,N
1638057115.0,286047001.0,N
1638057115.9,286047001.0,N
1638057135.8,286046999.2,N
1638057155.6,286046996.5,Y
1638057175.5,286046998.6,P
1638057195.3,286046998.9,N
1638057215.1,286046998.8,N
1638057235.9,286046998.8,N
1638057255.7,286046999.6,N
1638057275.6,286046996.9,Y
1638057295.4,286046996.9,P
1638057315.2,286046999.2,N
1638057335.1,286046996.6,P
1638057336.0,286046996.6,N
1638057355.8,286046999.6,N
1638057375.6,286046999.2,N
1638057395.5,286046998.7,N
1638057415.3,286046997.3,N
1638057435.2,286046997.2,N
1638057455.9,286046996.9,N
1638057475.7,286046999.6,N
1638057495.6,286046997.5,N
1638057515.4,286046997.3,N
1638057535.3,286046999.2,N
1638057555.1,286046999.3,N
1638057556.0,286046999.3,N
1638057575.8,286046997.8,N
1638057595.7,286046997.1,N
